Regional Weather Roundup
Issued by NWS State College, PA

Home | Current Version | Previous Version | Graphics & Text | Print | Product List | Glossary On
Versions: 1 2 3 4 5 6 7 8 9 10 11 12 13 14 15 16 17 18 19 20 21 22 23 24 25 26 27 28 29 30 31 32 33 34 35 36 37 38 39 40 41 42 43 44 45 46 47 48 49 50
815
ASUS41 KCTP 211710
RWRCTP

REGIONAL WEATHER ROUNDUP
NATIONAL WEATHER SERVICE STATE COLLEGE PA
1200 PM EST WED FEB 21 2018

Note: "fair" indicates few or no clouds below 12,000 feet with no
significant weather and/or obstructions to visibility.

* = STATION THAT DOES NOT REPORT PRECIPITATION /E.G. RAIN...SNOW...ETC/
    THUNDER OR FOG.

PAZ002>004-007>009-013>016-020>023-029>032-211800-
WESTERN PENNSYLVANIA

CITY           SKY/WX    TMP DP  RH WIND       PRES   REMARKS
ERIE           CLOUDY    38  36  92 W7        30.38R FOG
MEADVILLE      CLOUDY    45  44  97 NW6       30.33R
FRANKLIN*      LGT RAIN  53  51  93 NW8       30.30R
NEW CASTLE     LGT RAIN  56  56 100 N6        30.32R
BEAVER COUNTY  CLOUDY    55  52  88 NW3       30.31R
BUTLER*        CLOUDY    58  51  78 NW10G18   30.30R
PITTSBURGH INT CLOUDY    63  53  70 NW14      30.29R
PITTSBURGH     CLOUDY    68  54  60 W13       30.26R
INDIANA*       CLOUDY    70  57  64 W12G17    30.28R
LATROBE        CLOUDY    72  57  60 SW14G25   30.26S
WASHINGTON CO* LGT RAIN  68  58  70 W8        30.30R
$$

PAZ004>006-010>012-017>019-024>028-033>037-041-042-045-046-049>053-211800-
CENTRAL PENNSYLVANIA

CITY           SKY/WX    TMP DP  RH WIND       PRES   REMARKS
BRADFORD       LGT RAIN  54  53  97 NW10G21   30.26R FOG
DUBOIS         CLOUDY    63  53  70 W13G28    30.25R
CLEARFIELD     CLOUDY    70  55  59 SW17G24   30.23R
JOHNSTOWN      PTSUNNY   70  55  59 W28G43    30.25F
ALTOONA        PTSUNNY   71  56  58 SW7       30.25F
STATE COLLEGE  CLOUDY    68  54  60 S9        30.23F
WILLIAMSPORT   PTSUNNY   69  56  62 VRB5      30.20F
SELINSGROVE    FAIR      71  56  58 S7        30.23F
FT INDIANTOWN  PTSUNNY   64  54  68 CALM      30.27F
CAPITAL CITY   FAIR      77  59  53 SW12      30.25F
HARRISBURG     FAIR      73  56  54 NE5       30.25F
YORK           PTSUNNY   76  59  55 SW16G25   30.26F
$$

PAZ038>040-043-044-047-048-054-055-060>062-067>071-211800-
EASTERN PENNSYLVANIA

CITY           SKY/WX    TMP DP  RH WIND       PRES   REMARKS
SCRANTON       FAIR      72  55  55 SW13      30.22F
MOUNT POCONO   FAIR      66  54  65 SW21      30.26F
ALLENTOWN      FAIR      71  58  63 W7        30.27F
QUAKERTOWN*    MOSUNNY   73  61  64 SW15      30.27F
READING        FAIR      74  61  63 SW12G20   30.25F
LANCASTER      FAIR      75  59  57 SW16      30.26F
COATESVILLE    FAIR      70 -38   1 SW10      30.31S
POTTSTOWN      FAIR      70  58  65 SW12G17   30.29F
BLUE BELL      FAIR      70  61  73 SW13G21   30.29F
DOYLESTOWN     FAIR      72  59  63 SW12G23   30.27S
WILLOW GROVE   NOT AVBL
NORTH PHILA    FAIR      74  61  63 SW17G28   30.29F
PHILADELPHIA   MOSUNNY   72  60  66 SW22G30   30.29F
$$




USA.gov is the U.S. government's official web portal to all federal, state and local government web resources and services.